Overview Statistics Trail Chart Weather Telemetry Raw packets
 

This is the latest recevied weather packets stored in our database for station/object KC0RKM-13. If no packets are shown the sender has not sent any weather packets the latest 10 day(s).

<< 13 14 15 16 17 18 19 >>
Time Temp. Humidity Pressure Rain* Wind** Luminosity Snow
1788369003 34.44° C 43% 1013.6 hPa 0 mm - - -
1788368403 34.44° C 44% 1013.9 hPa 0 mm - - -
1788367803 33.89° C 45% 1013.9 hPa 0 mm - - -
1788367205 33.89° C 45% 1013.9 hPa 0 mm - - -
1788366603 33.33° C 46% 1014.2 hPa 0 mm - - -
1788366003 33.33° C 47% 1014.4 hPa 0 mm - - -
1788365403 32.78° C 48% 1014.3 hPa 0 mm - - -
1788364804 32.78° C 51% 1014.3 hPa 0 mm - - -
1788364204 32.22° C 50% 1014.5 hPa 0 mm - - -
1788363603 31.67° C 52% 1014.5 hPa 0 mm - - -
1788363003 31.11° C 54% 1014.4 hPa 0 mm - - -
1788362403 30.56° C 55% 1014.6 hPa 0 mm - - -
1788361804 30° C 55% 1014.3 hPa 0 mm - - -
1788361203 29.44° C 56% 1014.6 hPa 0 mm - - -
1788360603 28.89° C 58% 1014.7 hPa 0 mm - - -
1788360003 28.89° C 59% 1014.8 hPa 0 mm - - -
1788359403 28.33° C 58% 1014.8 hPa 0 mm - - -
1788358803 28.89° C 57% 1015.2 hPa 0 mm - - -
1788358204 27.78° C 59% 1014.9 hPa 0 mm - - -
1788357603 27.78° C 60% 1014.9 hPa 0 mm - - -
1788357004 27.22° C 61% 1015 hPa 0 mm - - -
1788355803 26.67° C 63% 1015.1 hPa 0 mm - - -
1788355204 26.11° C 62% 1014.8 hPa 0 mm - - -
1788354603 26.11° C 63% 1014.8 hPa 0 mm - - -
1788354003 26.11° C 63% 1015 hPa 0 mm - - -

* Rain latest hour (hover to see other rain measurements)
** Current wind speed in m/s (hover to see current wind gust speed)